Wind_Speed
47 47 47 48 50 52 53 53 54 55 54 55 57 59 60 62 64 65 66 68 70 71 72 74 76 75 76 76 78 80 82 84 85 87 90 93 96 98 97 92 92 92 91
46 48 50 51 52 53 54 55 55 56 56 58 59 61 63 64 65 66 69 70 71 72 73 76 76 77 78 80 81 83 85 85 85 88 92 95 95 94 93 90 92 89 90
50 52 53 53 54 55 55 57 58 59 60 61 63 64 65 67 68 69 70 69 70 72 76 79 79 80 82 82 84 85 86 87 90 92 94 94 93 92 89 89 88 87 89
51 52 53 53 55 58 59 59 60 61 63 64 66 66 68 69 70 72 70 69 69 73 80 82 83 84 84 84 85 86 87 90 94 94 93 93 91 88 88 89 85 85 85
52 53 55 58 59 60 62 63 64 64 64 67 68 69 71 72 73 72 73 72 73 80 82 85 87 86 85 84 85 88 89 94 94 92 91 89 86 85 86 87 85 83 83
54 54 55 58 60 62 64 65 66 68 69 70 71 73 75 75 75 75 75 73 77 81 84 85 88 88 84 85 87 89 92 94 91 88 88 84 82 83 83 84 81 81 83
52 53 54 55 57 60 63 64 66 68 70 71 73 75 77 77 77 75 74 72 78 81 82 84 87 83 85 88 89 90 93 90 86 86 83 81 81 82 83 81 80 80 79
51 51 51 53 56 58 60 62 64 68 72 75 76 77 77 77 74 74 71 76 78 80 81 83 82 83 87 89 91 90 88 85 82 83 81 80 80 80 79 78 78 77 76
55 55 55 55 57 61 63 63 66 72 74 75 76 77 75 75 74 72 74 76 78 81 83 82 82 86 90 91 91 86 84 79 81 80 79 77 77 77 79 79 78 77 78
56 56 57 58 59 60 61 62 65 69 70 71 67 71 74 73 72 71 76 80 80 83 83 83 85 88 89 87 83 81 80 78 78 78 75 76 75 76 78 79 78 79 81
58 59 60 61 62 63 61 59 61 64 62 65 68 70 72 73 74 81 78 80 80 80 81 82 85 85 81 78 79 79 78 79 79 76 74 73 74 76 78 78 79 81 82
60 60 60 62 64 62 60 61 61 62 70 71 72 76 77 79 78 79 79 78 78 77 80 82 80 77 77 78 79 80 81 81 78 75 74 75 76 78 79 78 79 82 82
60 61 62 61 61 62 64 66 68 69 72 73 74 76 77 75 74 75 75 76 79 80 78 79 78 79 79 79 79 80 81 78 76 76 76 77 78 79 79 80 81 81 82
64 59 58 57 59 61 66 69 71 70 67 68 69 69 66 69 74 78 81 82 80 79 79 80 79 78 79 81 81 79 76 75 75 76 77 78 80 80 81 83 83 83 83
60 61 62 62 62 63 64 62 61 60 63 67 70 73 77 81 83 83 80 77 77 78 79 78 79 81 82 82 80 77 75 76 78 79 81 82 83 84 85 86 85 84 82
61 62 60 58 59 61 63 64 66 69 72 76 79 82 84 83 80 78 77 76 75 76 79 80 80 81 79 78 76 74 75 77 79 81 83 84 86 88 89 87 85 80 71
57 56 56 57 60 63 66 69 73 76 78 81 81 81 80 79 78 76 75 75 76 78 79 79 79 78 76 74 74 75 76 79 81 85 87 88 89 92 89 84 77 68 61
57 60 62 64 66 69 72 74 76 76 76 76 75 74 74 74 75 76 77 79 80 80 80 79 76 74 73 74 75 77 78 82 85 88 90 92 92 88 81 72 65 62 59
62 65 68 69 70 69 69 71 72 72 73 72 73 74 75 76 77 78 79 80 80 78 75 72 72 72 73 74 76 79 82 84 88 91 90 89 84 77 68 64 61 58 55
64 66 67 66 66 65 66 68 70 71 73 75 76 77 78 80 81 81 80 79 77 72 69 70 71 71 74 76 79 82 85 90 89 87 84 77 70 64 61 60 58 52 44
62 61 63 64 65 66 68 70 73 74 76 77 79 80 80 81 79 77 75 71 68 67 68 69 71 74 76 79 82 86 87 85 82 75 67 63 59 59 58 53 44 35 26
58 60 63 66 68 70 72 74 76 77 77 79 81 82 81 77 73 69 66 66 66 68 70 72 75 78 81 83 84 82 79 75 66 60 58 55 54 52 45 32 19 12 11
62 65 68 70 71 73 75 76 78 79 80 81 79 75 71 69 66 65 65 65 67 69 72 75 78 78 78 77 76 74 65 57 54 52 50 49 43 33 20 11 6 7 9
66 68 70 72 74 75 76 77 78 79 77 75 72 68 66 64 65 66 67 70 73 75 77 76 74 72 71 72 68 60 50 46 45 44 43 35 25 14 7 4 6 8 8
65 67 70 73 75 76 77 76 75 75 75 73 70 70 71 73 72 73 75 76 76 75 73 70 67 67 65 62 56 48 42 39 38 37 31 20 12 9 7 7 8 8 7
69 70 71 72 74 74 74 74 73 72 70 70 71 72 73 73 75 75 75 74 72 67 63 64 63 60 56 51 46 39 36 34 33 29 21 16 13 9 9 9 9 8 7
Wind_Direction
275 273 269 268 268 269 269 269 269 270 270 270 271 274 277 280 282 284 286 289 291 292 294 296 297 300 302 303 304 304 305 306 306 309 310 312 314 315 315 317 317 318 318
274 274 272 268 268 268 268 268 269 269 269 270 273 276 279 280 282 284 286 289 290 292 295 296 297 300 301 302 302 303 304 305 308 309 312 312 315 315 316 317 316 317 318
272 273 274 273 272 269 267 268 268 268 269 272 276 278 279 280 282 285 287 290 291 293 295 296 298 299 300 300 301 303 305 307 309 311 311 313 315 315 316 316 316 317 319
275 272 271 271 270 270 269 268 268 269 272 275 278 279 280 282 284 286 289 291 292 294 293 295 297 298 298 298 301 304 306 307 309 311 313 314 315 315 315 315 316 318 320
273 274 274 272 270 270 272 272 273 275 276 278 278 279 280 282 284 288 291 292 292 291 294 296 297 298 297 299 302 305 306 307 309 311 314 315 315 315 314 316 318 320 321
275 272 272 274 275 275 275 276 277 277 278 279 280 281 282 284 288 290 291 294 292 292 294 294 296 296 297 301 302 304 303 307 309 313 314 314 314 313 315 317 318 319 320
277 276 272 271 273 275 276 278 279 280 280 281 281 282 284 286 289 290 292 291 289 289 290 292 293 294 296 299 301 299 303 308 311 312 313 314 314 314 315 316 316 318 319
279 278 278 274 273 274 276 278 279 279 279 280 282 284 285 287 289 290 290 286 285 285 287 290 291 292 294 296 296 302 306 311 312 312 313 313 313 313 314 315 315 315 317
281 278 276 274 273 273 276 278 278 278 279 283 283 285 289 286 287 287 284 284 281 282 287 290 289 290 293 293 300 305 309 311 311 312 313 312 312 313 313 314 314 315 316
278 275 273 273 274 276 276 277 278 279 282 285 288 288 284 285 284 281 280 280 278 282 287 288 289 290 293 300 305 309 310 309 311 311 311 311 312 312 311 312 313 314 315
277 276 275 274 274 275 276 278 280 282 282 283 284 280 280 279 276 280 278 278 281 285 286 287 290 295 300 306 308 308 308 309 311 310 309 309 309 309 310 311 311 312 313
277 277 275 276 275 273 275 277 279 277 276 277 276 275 274 276 277 275 278 281 283 285 286 291 297 304 308 307 306 308 309 310 309 307 308 309 308 309 310 310 310 311 312
277 276 275 275 274 272 271 269 271 272 272 273 275 277 279 277 275 277 281 281 284 290 297 300 304 306 304 304 306 308 308 308 307 307 308 308 308 308 309 310 310 310 311
277 276 274 275 273 272 272 272 272 273 275 277 276 274 274 274 275 280 286 293 296 298 301 303 302 301 303 304 305 306 305 304 305 305 306 307 307 308 308 308 310 310 309
276 276 277 279 277 274 272 274 276 274 271 271 272 273 276 281 287 291 294 297 299 300 301 300 301 302 303 303 304 304 303 304 305 306 306 306 307 307 307 308 307 307 306
278 278 276 274 274 273 273 274 273 273 274 276 279 282 286 288 291 294 297 298 298 298 299 300 300 301 302 302 302 302 302 303 304 304 305 304 304 305 306 306 306 304 302
278 278 277 276 273 272 272 272 273 275 277 279 282 284 287 289 291 293 294 295 296 297 298 298 299 299 299 299 300 301 302 303 303 303 302 303 304 305 305 305 302 300 299
279 279 278 276 275 275 275 276 277 279 280 281 283 286 288 290 291 293 294 296 296 296 297 297 298 297 298 298 299 301 302 302 303 303 304 304 304 305 304 301 299 298 296
279 279 279 279 279 279 279 279 280 282 284 286 287 288 290 292 294 295 295 296 296 295 295 295 296 297 298 299 300 300 302 303 304 303 304 305 305 303 301 300 298 296 294
278 277 278 280 281 282 283 284 286 287 289 289 290 292 294 294 295 296 294 293 293 293 294 295 295 296 297 298 300 301 303 304 305 304 305 304 303 303 301 300 298 295 290
279 280 282 283 284 285 286 287 288 289 290 291 292 293 295 295 294 292 292 293 292 292 293 295 295 296 297 299 300 301 303 305 305 305 303 304 305 305 304 301 298 288 278
281 282 283 284 285 286 287 288 289 289 290 290 292 293 294 293 291 290 292 292 292 293 294 296 298 298 298 298 301 303 305 306 305 304 306 308 310 307 305 301 291 262 232
284 284 285 286 286 287 287 288 288 289 291 292 293 292 291 292 291 290 290 291 293 295 295 297 298 297 298 299 302 305 306 303 304 308 310 313 312 308 305 293 247 204 201
285 286 286 287 287 288 289 289 289 290 291 291 292 289 288 286 285 285 287 289 292 293 296 296 297 297 299 303 305 306 303 302 306 310 311 314 311 308 290 235 214 202 200
291 291 290 289 289 289 290 290 291 290 291 290 290 288 285 285 285 285 287 290 292 292 293 294 295 298 301 304 304 303 300 303 306 308 309 307 306 292 264 218 218 213 206
295 294 294 294 292 292 291 291 291 290 290 290 289 287 286 286 286 287 288 288 289 290 290 293 296 300 302 302 300 296 297 300 303 303 295 293 288 262 243 239 234 221 211
Height
5742 5742 5740 5740 5739 5738 5737 5737 5735 5734 5733 5731 5729 5727 5725 5722 5718 5714 5711 5707 5702 5696 5690 5684 5677 5671 5665 5658 5651 5645 5638 5631 5623 5609 5598 5587 5578 5567 5557 5545 5535 5523 5508
5730 5729 5728 5727 5727 5727 5726 5725 5723 5722 5720 5718 5716 5714 5711 5707 5703 5699 5695 5691 5686 5680 5673 5666 5660 5655 5648 5642 5635 5627 5619 5611 5603 5593 5580 5570 5557 5547 5538 5529 5520 5508 5495
5718 5717 5716 5715 5715 5714 5713 5711 5710 5708 5706 5704 5702 5699 5695 5691 5687 5684 5679 5675 5669 5663 5655 5648 5643 5637 5631 5625 5617 5609 5600 5589 5581 5572 5564 5552 5542 5531 5524 5512 5504 5492 5478
5706 5704 5703 5703 5701 5700 5698 5697 5695 5694 5692 5690 5687 5683 5679 5675 5671 5667 5663 5658 5653 5646 5637 5631 5625 5619 5613 5606 5598 5590 5580 5570 5560 5551 5542 5533 5522 5513 5503 5496 5492 5474 5463
5695 5694 5693 5691 5689 5687 5686 5684 5682 5681 5679 5675 5672 5668 5663 5659 5654 5650 5646 5642 5636 5627 5620 5613 5607 5601 5594 5588 5580 5571 5562 5552 5540 5532 5523 5514 5503 5493 5483 5474 5464 5457 5446
5682 5681 5679 5678 5677 5675 5673 5671 5669 5667 5664 5660 5656 5652 5647 5643 5638 5634 5630 5626 5616 5609 5603 5596 5588 5582 5575 5569 5562 5553 5544 5533 5523 5512 5505 5496 5487 5475 5465 5455 5444 5433 5429
5668 5667 5666 5664 5664 5662 5659 5657 5655 5652 5648 5644 5640 5635 5631 5626 5621 5617 5613 5607 5598 5592 5585 5578 5571 5564 5557 5551 5544 5536 5526 5516 5505 5496 5489 5479 5470 5458 5450 5439 5427 5416 5407
5656 5654 5653 5651 5649 5647 5645 5642 5640 5637 5632 5628 5623 5619 5615 5610 5605 5601 5596 5588 5583 5576 5568 5561 5554 5547 5538 5533 5527 5518 5508 5497 5483 5476 5469 5462 5451 5439 5429 5420 5410 5402 5395
5641 5639 5637 5635 5633 5631 5629 5626 5623 5620 5616 5612 5608 5603 5599 5594 5589 5585 5577 5573 5566 5559 5552 5545 5537 5530 5519 5513 5510 5500 5491 5480 5468 5460 5452 5443 5433 5422 5410 5402 5391 5381 5375
5624 5622 5620 5618 5616 5615 5613 5610 5607 5604 5600 5596 5592 5588 5583 5578 5574 5565 5558 5556 5549 5542 5537 5528 5520 5512 5504 5494 5487 5479 5473 5465 5456 5447 5437 5427 5418 5407 5395 5384 5374 5365 5355
5608 5607 5605 5603 5601 5599 5597 5595 5592 5588 5584 5580 5576 5571 5567 5562 5553 5546 5542 5539 5533 5527 5520 5511 5502 5492 5485 5476 5466 5461 5454 5446 5439 5430 5423 5415 5404 5394 5383 5371 5359 5349 5340
5593 5591 5588 5586 5585 5583 5581 5579 5575 5572 5568 5562 5557 5553 5547 5542 5536 5529 5526 5522 5515 5511 5504 5494 5484 5473 5464 5456 5450 5442 5434 5427 5421 5414 5407 5398 5388 5378 5366 5356 5345 5335 5324
5575 5573 5571 5570 5568 5565 5563 5560 5556 5553 5548 5543 5539 5535 5530 5525 5520 5515 5509 5504 5497 5491 5479 5470 5464 5456 5449 5444 5435 5426 5415 5408 5399 5392 5386 5380 5369 5359 5349 5339 5330 5320 5310
5557 5555 5553 5551 5550 5548 5544 5540 5537 5533 5529 5526 5522 5518 5514 5509 5504 5495 5487 5477 5470 5463 5457 5454 5447 5440 5434 5427 5420 5411 5401 5391 5383 5375 5368 5360 5349 5340 5330 5320 5313 5303 5295
5540 5539 5537 5535 5532 5530 5526 5522 5519 5516 5514 5511 5506 5501 5495 5488 5478 5472 5465 5458 5451 5445 5440 5434 5427 5421 5414 5407 5400 5392 5384 5375 5365 5356 5347 5339 5329 5319 5311 5303 5293 5285 5275
5524 5522 5520 5517 5515 5513 5510 5506 5503 5499 5496 5492 5486 5480 5473 5466 5459 5451 5444 5440 5435 5429 5423 5418 5409 5402 5394 5388 5381 5374 5366 5358 5348 5338 5329 5319 5310 5300 5292 5283 5273 5263 5256
5507 5504 5502 5500 5497 5494 5492 5489 5485 5481 5476 5472 5465 5459 5453 5447 5441 5436 5430 5425 5418 5411 5406 5399 5392 5384 5377 5370 5363 5356 5348 5340 5331 5321 5309 5299 5288 5278 5269 5261 5251 5242 5237
5489 5487 5485 5482 5479 5476 5473 5469 5465 5460 5455 5451 5446 5441 5436 5430 5424 5418 5412 5406 5400 5392 5385 5378 5371 5365 5358 5351 5344 5336 5328 5320 5309 5298 5286 5275 5265 5254 5245 5238 5230 5224 5219
5471 5468 5466 5463 5460 5455 5451 5448 5444 5439 5436 5432 5427 5423 5416 5411 5405 5398 5391 5385 5379 5372 5366 5359 5353 5346 5339 5332 5325 5316 5308 5298 5287 5275 5263 5251 5241 5231 5224 5217 5212 5206 5202
5452 5449 5447 5443 5440 5436 5432 5428 5424 5420 5416 5411 5405 5400 5395 5389 5384 5378 5371 5365 5359 5353 5347 5341 5334 5326 5320 5312 5305 5296 5287 5276 5264 5252 5241 5230 5221 5212 5205 5198 5192 5188 5185
5434 5431 5428 5425 5421 5417 5413 5409 5405 5400 5395 5389 5384 5380 5374 5368 5362 5356 5350 5345 5340 5334 5329 5322 5315 5308 5300 5292 5283 5275 5266 5255 5244 5232 5221 5213 5204 5196 5188 5180 5175 5173 5173
5416 5413 5410 5406 5402 5398 5394 5389 5384 5379 5374 5369 5364 5359 5353 5346 5340 5334 5330 5325 5320 5315 5310 5303 5296 5288 5281 5272 5264 5255 5246 5235 5225 5216 5206 5198 5190 5181 5173 5168 5165 5166 5169
5399 5396 5391 5387 5383 5378 5374 5369 5364 5359 5353 5347 5342 5336 5330 5324 5319 5315 5311 5306 5301 5296 5290 5284 5276 5268 5261 5253 5245 5236 5227 5218 5210 5203 5194 5187 5179 5172 5168 5166 5165 5167 5170
5379 5375 5371 5367 5362 5357 5352 5347 5341 5336 5330 5324 5318 5314 5309 5305 5301 5296 5292 5287 5282 5276 5270 5263 5257 5250 5243 5235 5226 5219 5212 5206 5199 5193 5186 5180 5175 5170 5168 5167 5168 5169 5171
5360 5355 5350 5345 5340 5334 5329 5323 5317 5312 5307 5302 5297 5292 5288 5284 5279 5275 5271 5266 5260 5254 5248 5243 5238 5232 5225 5217 5210 5205 5200 5195 5191 5185 5181 5177 5173 5171 5169 5169 5169 5169 5170
5339 5333 5327 5321 5315 5310 5304 5299 5293 5288 5283 5279 5275 5270 5266 5261 5257 5252 5248 5244 5239 5234 5228 5224 5220 5215 5209 5202 5197 5193 5190 5186 5183 5179 5176 5174 5172 5170 5169 5168 5168 5168 5169